RH
30 27 27 28 31 34 37 38 37 34 33 44 41 43 37 38 34 32 32 28 24 22 17 18 35 66 76 83 88 88 89 81 81 99 100 100 100 91 77 66 66 47 42 28
25 27 26 30 31 33 30 34 35 36 41 45 44 42 37 41 44 43 44 42 39 36 24 25 30 55 73 78 90 91 93 85 83 98 98 100 99 98 87 78 75 61 34 29
27 23 27 25 27 29 26 33 39 46 42 46 44 40 41 36 39 39 42 44 41 42 39 32 36 42 61 76 83 86 91 89 95 100 100 99 100 100 97 84 81 78 48 33
24 22 24 26 25 31 33 32 45 51 42 45 43 45 34 40 53 53 48 51 51 48 42 38 41 43 54 69 79 84 88 88 96 100 100 100 99 100 98 83 83 83 76 41
19 22 26 30 24 33 31 46 52 47 45 48 46 60 44 53 78 68 61 64 62 59 51 43 37 42 45 64 81 87 93 98 100 98 94 98 98 98 98 94 92 92 91 62
23 24 28 29 27 33 35 46 48 47 46 41 55 63 47 85 90 81 73 71 74 78 70 56 53 51 48 66 80 92 95 98 100 100 100 99 100 99 99 100 100 99 100 99
22 20 24 30 28 28 34 40 66 50 62 52 48 52 59 72 73 79 91 82 81 80 87 84 60 58 64 75 87 93 99 100 100 99 100 100 94 97 98 99 98 96 100 97
30 19 22 24 30 36 44 53 77 96 62 72 53 83 66 68 60 74 76 81 83 83 89 95 91 78 82 88 99 100 100 100 100 100 99 94 96 94 96 99 99 100 100 100
30 26 24 28 33 44 33 44 61 87 73 69 56 31 54 59 52 63 72 78 84 86 91 95 96 97 100 100 100 100 100 99 100 99 81 88 97 97 99 99 98 94 100 100
29 34 24 24 38 35 36 44 49 58 86 65 32 32 59 68 56 54 61 73 79 83 87 92 96 99 100 100 100 100 100 100 100 99 100 100 100 100 95 100 100 100 100 100
27 30 19 27 22 28 30 30 37 52 56 57 41 34 36 46 55 55 50 62 73 77 83 85 88 96 96 98 99 100 99 100 100 99 99 99 100 99 100 99 98 98 100 100
28 27 23 18 22 27 30 31 29 40 42 54 52 34 34 39 48 47 49 54 57 61 66 66 67 71 84 96 96 97 98 98 96 96 98 96 89 83 81 74 73 73 72 79
29 25 22 19 28 25 22 25 28 38 50 38 42 28 32 37 42 45 50 49 50 53 56 56 51 52 57 69 76 80 82 69 58 59 57 54 54 54 53 53 53 52 52 52
34 33 28 22 17 22 19 23 21 28 36 22 24 25 31 38 45 44 51 46 48 51 51 49 46 48 48 51 48 48 49 49 49 47 46 45 45 45 44 44 42 41 41 41
31 28 26 22 20 20 23 22 22 30 31 27 22 26 26 35 41 42 44 45 45 46 53 46 42 40 41 42 42 42 42 42 42 42 42 43 44 43 44 46 45 45 44 45
22 20 23 25 26 35 37 32 33 34 35 33 27 24 25 34 37 39 40 43 44 43 43 42 39 39 39 39 40 41 40 39 39 40 43 44 44 47 47 46 46 48 49 48
23 26 25 24 26 29 29 28 32 32 27 18 19 23 35 38 39 38 38 40 41 40 39 39 37 37 37 37 37 38 38 38 37 38 40 42 44 46 47 47 49 50 51 49
28 28 27 27 30 30 30 28 27 25 22 22 25 30 37 34 33 34 35 35 37 37 38 37 37 39 39 39 40 39 38 37 38 39 42 43 45 48 49 48 51 51 53 54
25 26 28 40 36 26 26 33 30 26 21 21 24 29 32 37 37 35 33 32 32 34 34 35 37 40 41 40 40 40 40 40 40 42 44 47 48 49 50 53 56 57 56 58
35 28 29 42 51 43 26 26 22 22 27 21 26 29 34 38 36 25 32 34 33 34 36 38 39 40 40 41 41 41 41 41 44 47 50 50 51 54 57 62 63 66 62 61
39 37 36 36 48 35 25 25 22 27 28 24 27 28 32 35 26 31 32 34 34 36 38 40 40 39 40 42 42 42 42 44 50 53 55 57 59 61 63 64 62 61 58 56
37 44 42 35 47 52 29 33 25 23 29 26 31 30 32 31 37 36 37 39 40 40 42 40 39 40 43 43 41 42 45 55 57 57 58 58 59 58 59 60 58 56 56 50
38 30 35 35 35 30 30 29 23 27 25 29 29 30 31 32 35 37 42 42 42 43 43 40 40 43 44 44 41 44 56 57 58 58 60 59 59 56 55 49 47 48 54 58
37 37 40 41 25 31 34 31 30 26 28 29 29 28 32 32 31 36 40 43 42 43 42 41 42 43 45 47 47 49 56 58 57 56 59 60 54 48 46 50 54 59 60 58
31 39 33 34 29 35 35 33 29 30 34 34 33 32 32 32 34 35 40 42 42 44 43 43 42 43 48 53 54 56 59 59 55 55 54 54 49 46 47 56 61 64 57 69
39 33 35 29 23 22 21 25 26 32 33 31 32 32 34 34 34 38 40 42 43 44 46 45 45 48 55 55 56 61 64 60 55 52 52 48 47 49 53 53 49 53 54 72
Wind_Speed
2 3 6 8 6 10 11 12 13 11 8 10 9 14 6 12 10 10 9 10 9 8 6 2 8 18 20 21 24 26 25 24 24 24 24 22 16 15 15 17 15 16 16 21
3 3 6 9 7 9 11 11 12 4 5 4 15 4 4 11 10 10 13 11 10 10 8 3 2 13 18 20 24 26 26 25 27 24 26 17 19 13 12 14 16 15 18 22
4 4 7 8 11 13 9 10 13 10 10 3 14 6 4 17 14 15 13 12 10 10 11 7 4 9 18 22 25 26 26 28 28 27 28 21 18 15 13 14 17 17 18 19
3 2 6 9 10 10 9 14 10 5 5 7 11 4 5 20 20 20 18 17 14 12 10 9 7 9 17 21 23 26 29 28 28 28 28 21 19 11 13 23 21 23 23 23
5 5 7 8 11 9 10 13 4 2 2 5 15 4 10 21 20 26 23 20 16 15 13 11 9 10 11 17 20 20 20 20 21 24 24 22 17 14 15 22 25 24 26 31
4 3 2 5 15 5 16 5 3 2 2 3 7 5 10 13 18 21 22 17 14 13 13 8 4 5 8 13 16 19 19 20 20 24 20 18 13 13 16 18 21 26 27 27
6 2 1 3 10 2 16 11 2 1 3 5 8 6 5 15 21 16 14 15 14 13 11 8 5 8 11 13 16 18 19 19 20 20 17 15 13 9 10 18 20 19 23 30
5 3 6 9 4 7 8 6 3 3 6 5 9 10 6 14 12 16 16 14 15 15 12 12 8 12 14 15 16 21 25 23 20 20 19 20 12 19 16 15 16 19 19 19
5 2 2 2 3 4 5 5 2 1 2 4 3 12 4 15 16 18 19 18 17 16 14 13 14 15 19 20 21 24 26 22 21 26 31 21 16 13 11 13 12 17 18 23
2 5 2 2 3 2 5 1 1 2 5 5 5 11 7 16 16 16 19 18 16 15 15 14 14 19 21 22 20 23 20 17 19 18 15 14 10 9 13 10 10 10 10 15
1 3 1 3 2 4 1 2 3 1 3 4 6 6 5 8 11 13 13 13 13 13 12 12 15 19 21 26 28 26 25 20 20 19 13 14 9 9 9 11 10 10 9 10
2 3 5 3 3 3 2 2 4 4 2 1 3 3 5 5 6 8 9 10 11 10 10 12 16 20 23 20 26 24 24 23 19 18 16 18 19 17 16 15 13 11 11 11
3 2 5 4 5 3 3 1 1 2 2 2 3 4 3 3 4 6 7 8 9 11 12 12 17 19 19 21 20 22 24 20 17 19 21 20 22 22 21 19 18 16 16 15
4 3 6 6 7 4 8 5 8 5 4 3 3 5 2 3 3 5 4 6 7 10 10 12 13 15 17 19 19 21 22 20 20 20 22 22 20 19 19 19 17 16 14 13
3 4 4 10 15 14 15 15 11 11 9 5 3 4 2 3 4 5 5 4 7 9 8 9 11 14 18 20 20 21 21 20 20 21 21 20 18 17 17 17 15 14 12 11
2 1 3 6 4 4 9 12 11 11 10 12 10 8 3 6 5 6 7 7 8 8 8 10 11 15 16 17 18 18 17 17 17 19 19 17 16 15 15 13 12 11 10 9
3 2 3 3 4 13 9 4 10 6 7 5 4 3 9 7 8 8 8 8 9 9 10 10 11 13 14 15 15 16 15 14 15 16 15 14 13 13 11 10 10 9 8 7
4 3 2 5 9 3 3 3 1 7 7 10 3 6 9 7 6 8 9 11 11 11 11 11 13 13 13 13 13 13 12 12 13 13 12 10 10 9 8 8 7 6 6 7
5 5 3 3 3 10 1 2 4 4 5 11 11 7 8 6 5 7 10 11 13 12 13 13 14 14 13 14 14 14 12 11 11 10 8 7 6 6 6 6 6 6 6 7
5 6 4 2 3 3 2 1 2 1 7 4 9 10 10 10 7 5 14 12 12 16 16 17 16 15 14 13 12 12 12 11 9 7 6 5 4 4 3 3 2 2 4 5
6 5 9 7 5 7 6 4 2 3 2 2 8 8 11 9 1 7 12 12 15 18 19 19 17 17 15 15 13 12 11 10 9 7 6 5 4 4 2 1 3 5 6 6
9 8 5 5 5 6 11 6 5 2 3 3 6 7 11 8 6 7 9 11 15 18 19 19 19 18 17 16 15 13 11 10 8 7 6 6 4 2 3 3 3 3 5 7
6 5 4 9 5 1 12 0 6 3 2 4 6 7 9 10 10 9 9 11 16 20 21 20 20 19 17 17 15 14 12 10 9 8 7 5 3 2 1 2 3 3 5 6
7 7 3 3 7 13 9 10 9 9 9 6 6 5 8 12 11 11 9 11 16 20 21 21 21 20 18 16 14 13 14 12 10 9 8 6 4 3 1 2 2 3 5 7
3 11 9 11 11 6 12 13 13 11 11 12 11 11 12 11 11 11 11 13 18 21 21 23 22 21 20 18 15 15 14 13 11 9 8 7 4 2 1 2 1 3 5 6
8 9 8 9 6 6 8 6 7 10 12 12 12 11 11 12 12 11 11 18 21 23 23 22 21 21 21 19 17 15 14 12 11 10 8 6 5 2 1 1 2 6 6 5
Wind_Direction
34 294 11 350 338 307 304 306 313 328 339 318 336 318 355 356 10 2 356 311 294 274 293 275 235 221 221 203 198 193 193 192 187 195 190 178 180 180 179 179 182 178 180 185
217 344 348 317 305 308 313 310 342 339 6 295 344 66 29 18 21 4 345 335 316 302 279 237 238 206 211 204 197 193 193 193 194 191 197 191 185 178 180 176 180 186 189 192
300 2 324 311 324 335 342 335 334 308 319 219 344 189 0 21 8 356 356 336 321 304 293 278 242 212 201 208 201 199 196 194 191 188 193 192 188 180 173 178 184 186 190 190
283 357 336 320 326 343 317 354 305 280 299 15 15 327 30 357 351 353 348 342 333 312 286 271 240 229 206 204 201 200 194 194 192 185 184 190 182 178 193 187 189 190 191 184
43 331 341 322 342 333 315 336 297 244 280 275 17 284 23 3 348 340 338 332 332 318 300 279 251 224 224 196 192 194 190 184 174 182 198 197 194 199 198 193 194 193 191 196
296 324 275 317 316 298 316 325 259 238 274 326 13 336 4 353 331 325 325 347 340 334 330 299 268 212 195 182 176 177 178 172 172 177 182 195 194 172 176 176 179 188 188 186
325 131 300 320 320 180 358 356 338 301 359 356 1 310 34 347 331 323 349 359 356 354 356 4 84 115 133 152 157 162 156 136 158 170 170 156 118 153 185 189 181 169 183 187
351 164 8 358 6 320 341 2 30 348 347 323 331 351 6 342 334 10 13 14 13 8 6 19 52 98 107 121 126 127 124 125 139 145 131 126 126 151 153 182 194 189 189 197
338 297 336 6 334 331 8 12 7 289 179 272 4 26 49 342 8 12 11 10 17 16 14 25 32 76 92 100 114 120 121 131 136 137 127 146 149 158 144 168 182 188 209 204
61 289 179 344 240 97 1 55 257 76 1 346 21 39 30 337 356 4 11 11 14 19 22 33 37 48 66 70 92 107 96 103 113 133 140 133 138 144 143 157 160 181 198 199
236 270 126 253 14 337 150 42 41 295 335 335 321 55 7 332 348 357 13 21 15 20 25 41 46 56 66 79 82 93 95 91 106 134 131 133 125 123 131 137 130 120 136 162
89 309 283 305 355 264 306 36 16 330 8 298 309 62 19 1 350 0 16 22 29 30 42 57 61 64 66 67 83 82 92 94 100 106 109 104 106 105 106 106 111 120 128 129
147 180 292 176 173 164 279 326 27 327 274 258 318 41 49 25 10 45 29 36 44 46 58 66 68 70 71 76 73 81 83 82 83 94 99 95 94 96 94 92 92 95 98 101
191 230 259 289 323 318 278 251 286 267 271 352 258 335 62 75 69 64 44 61 64 72 66 79 81 78 83 84 85 87 91 93 95 94 93 91 90 92 90 89 88 89 90 94
238 260 255 269 278 279 270 270 271 239 260 270 61 277 338 120 135 108 100 89 96 91 78 83 93 100 97 96 98 96 95 97 100 96 94 93 92 92 90 90 91 90 91 91
189 256 287 285 260 241 265 258 259 248 255 256 268 269 169 131 142 150 135 131 116 108 109 111 108 104 101 101 98 98 99 105 107 102 99 100 98 96 92 90 88 85 81 75
216 254 294 281 281 300 261 273 209 199 217 229 233 110 164 171 176 172 159 156 144 137 133 124 119 115 112 109 110 107 107 108 101 98 98 97 94 87 82 77 71 68 62 51
181 191 243 292 307 260 69 110 134 261 264 220 211 173 185 186 171 171 175 170 161 155 149 142 134 125 119 116 112 109 107 103 100 98 96 90 84 77 70 66 65 56 42 27
230 208 229 271 283 299 175 180 193 211 289 217 215 178 176 160 172 199 186 184 173 166 158 151 145 138 135 133 132 125 115 109 105 99 92 80 69 66 59 51 41 25 6 354
175 237 249 198 259 249 55 109 163 172 266 163 190 177 171 165 203 179 178 180 171 166 161 155 152 148 145 143 139 132 129 126 119 113 101 87 85 94 85 68 47 359 331 325
155 180 219 223 254 274 237 146 177 212 44 121 185 181 176 192 356 116 162 174 176 171 163 160 158 159 157 153 151 146 143 133 128 119 113 105 94 88 90 60 9 336 329 330
178 166 191 196 223 258 157 129 227 81 130 162 190 196 203 209 165 151 168 172 170 169 166 166 163 162 161 161 160 154 147 143 139 131 125 116 105 80 25 5 346 335 329 322
208 215 185 206 220 32 185 85 191 167 163 177 203 218 223 213 204 182 183 181 180 173 170 171 166 160 163 164 166 159 155 151 147 143 137 132 129 106 44 338 335 332 333 316
220 192 242 220 221 224 229 234 236 223 229 226 218 237 214 225 214 200 185 180 177 175 172 170 166 164 163 167 164 162 157 158 158 156 154 157 155 137 91 31 11 347 327 313
167 158 203 246 253 261 247 236 242 240 237 246 248 232 219 219 218 198 188 180 179 175 173 172 170 168 166 166 162 160 161 162 163 162 162 155 142 121 83 44 7 334 317 312
186 190 198 234 218 234 274 182 215 216 226 236 235 229 221 215 218 194 191 183 177 174 173 173 172 167 165 165 164 163 164 166 165 165 165 159 151 145 118 40 341 317 322 311